Location: Unspecified
(47.7670°N, 8.8522°E)
Time: 22:31:31
(UTC+01:00)

ISS - Pass Details

Date: 27 January 2019
Orbit: 403 x 411 km, 51.6° (Epoch: 20 February)

Event Time Altitude Azimuth Distance (km) Brightness Sun altitude
Rises 18:20:17 0° 241° (WSW) 2,325 1.8 -10.7°
Reaches altitude 10° 18:22:21 10° 239° (WSW) 1,469 0.4 -11.1°
Maximum altitude 18:25:38 77° 154° (SSE) 425 -3.8 -11.6°
Enters shadow 18:27:46 20° 70° (ENE) 1,007 -2.5 -12.0°
